Location: Banksville Park
(38.5557°N, 75.1182°W)
Time: 12:08:32
(UTC+00:00)

CENTAUR R/B - Pass Details

Date: 19 January 2021
Orbit: 742 x 1446 km, 63.5° (Epoch: 02 March)

Event Time Altitude Azimuth Distance (km) Brightness Sun altitude
Rises 11:32:18 0° 192° (SSW) 3,279 5.4 -8.5°
Reaches altitude 10° 11:34:39 10° 186° (S) 2,414 4.8 -8.1°
Maximum altitude 11:39:56 46° 114° (ESE) 1,206 3.7 -7.1°
Drops below altitude 10° 11:46:07 10° 44° (NE) 2,830 5.2 -6.0°
Sets 11:49:04 0° 38° (NE) 3,903 5.9 -5.5°
